CES5963 ZUUU-ZSQD

Flight info

Callsign CES5963
Flight time 2h 8m
Altitude 41100
Route GURET9W GURET W233 AGULU W81 APIMI W275 NSH W281 SUDGO W4 WXI W59 SUNOK W103 WFG WFG81A
Aircraft A359/H-SDE2E3GHIJ3J4J5LM1ORWXY/LB1D1

Departure

Time 2026-05-05 12:12
Airport Chengdu Shuangliu International Airport (ZUUU)

Arrival

Time 2026-05-05 14:20
Airport Qingdao Jiaodong International Airport (ZSQD)
Time Latitude Longitude Altitude Speed Heading
2026-05-05 11:45 30.56344 103.94674 1652 ft 0 kts 201°
2026-05-05 12:03 30.56354 103.94679 1652 ft 4 kts 200°
2026-05-05 12:03 30.56369 103.94688 1652 ft 4 kts 218°
2026-05-05 12:03 30.56390 103.94706 1652 ft 4 kts 217°
2026-05-05 12:04 30.56411 103.94726 1652 ft 4 kts 221°
2026-05-05 12:04 30.56421 103.94736 1652 ft 4 kts 225°
2026-05-05 12:08 30.56420 103.94734 1652 ft 1 kts 225°
2026-05-05 12:08 30.56406 103.94703 1652 ft 7 kts 259°
2026-05-05 12:08 30.56439 103.94630 1652 ft 14 kts 304°
2026-05-05 12:09 30.56491 103.94505 1652 ft 20 kts 290°
2026-05-05 12:09 30.56538 103.94366 1652 ft 15 kts 285°
2026-05-05 12:09 30.56475 103.94267 1652 ft 20 kts 202°
2026-05-05 12:09 30.56410 103.94237 1652 ft 1 kts 201°
2026-05-05 12:10 30.56346 103.94207 1652 ft 17 kts 204°
2026-05-05 12:10 30.56323 103.94112 1652 ft 7 kts 293°
2026-05-05 12:10 30.56347 103.94049 1652 ft 10 kts 293°
2026-05-05 12:10 30.56382 103.94015 1652 ft 5 kts 349°
2026-05-05 12:11 30.56441 103.94037 1652 ft 0 kts 23°
2026-05-05 12:11 30.56459 103.94046 1652 ft 12 kts 23°
2026-05-05 12:11 30.56745 103.94184 1652 ft 79 kts 22°
2026-05-05 12:12 30.57447 103.94514 1652 ft 139 kts 22°
2026-05-05 12:12 30.58513 103.95014 1793 ft 177 kts 22°
2026-05-05 12:12 30.59662 103.95524 2449 ft 178 kts 21°
2026-05-05 12:12 30.60811 103.96072 3090 ft 175 kts 24°
2026-05-05 12:13 30.61920 103.96649 3649 ft 177 kts 25°
2026-05-05 12:13 30.63123 103.97224 3955 ft 197 kts 21°
2026-05-05 12:13 30.64379 103.97781 4252 ft 216 kts 21°
2026-05-05 12:13 30.65644 103.98353 4580 ft 233 kts 22°
2026-05-05 12:14 30.67150 103.99187 4895 ft 255 kts 35°
2026-05-05 12:14 30.68361 104.00738 5499 ft 264 kts 58°
2026-05-05 12:14 30.69360 104.02585 6208 ft 271 kts 59°
2026-05-05 12:14 30.70355 104.04442 6925 ft 277 kts 59°
2026-05-05 12:15 30.71397 104.06360 7722 ft 283 kts 58°
2026-05-05 12:15 30.72462 104.08310 8568 ft 288 kts 58°
2026-05-05 12:15 30.73549 104.10295 9452 ft 294 kts 58°
2026-05-05 12:15 30.74602 104.12180 10189 ft 299 kts 57°
2026-05-05 12:16 30.76103 104.13954 10600 ft 321 kts 33°
2026-05-05 12:16 30.78177 104.15087 11004 ft 340 kts 21°
2026-05-05 12:16 30.80437 104.16110 11396 ft 358 kts 21°
2026-05-05 12:16 30.82799 104.17209 11835 ft 372 kts 22°
2026-05-05 12:17 30.85234 104.18366 12368 ft 382 kts 22°
2026-05-05 12:17 30.87723 104.19558 12945 ft 390 kts 22°
2026-05-05 12:17 30.90214 104.20795 13489 ft 397 kts 26°
2026-05-05 12:17 30.92579 104.22461 14015 ft 400 kts 39°
2026-05-05 12:18 30.94544 104.24755 14593 ft 401 kts 53°
2026-05-05 12:18 30.95973 104.27529 15142 ft 402 kts 68°
2026-05-05 12:18 30.96791 104.30622 15675 ft 402 kts 82°
2026-05-05 12:18 30.97127 104.33877 16213 ft 405 kts 87°
2026-05-05 12:19 30.97371 104.37133 16743 ft 409 kts 86°
2026-05-05 12:19 30.97629 104.40448 17269 ft 413 kts 86°
2026-05-05 12:19 30.97899 104.43799 17800 ft 417 kts 86°
2026-05-05 12:19 30.98175 104.47177 18276 ft 422 kts 86°
2026-05-05 12:20 30.98457 104.50602 18752 ft 425 kts 85°
2026-05-05 12:20 30.98738 104.54040 19221 ft 429 kts 85°
2026-05-05 12:20 30.99021 104.57505 19717 ft 432 kts 85°
2026-05-05 12:20 30.99304 104.60956 20226 ft 435 kts 85°
2026-05-05 12:21 30.99590 104.64456 20702 ft 439 kts 85°
2026-05-05 12:21 30.99885 104.68081 21214 ft 442 kts 85°
2026-05-05 12:21 31.00172 104.71615 21708 ft 446 kts 85°
2026-05-05 12:21 31.00464 104.75225 22193 ft 450 kts 85°
2026-05-05 12:22 31.00757 104.78870 22697 ft 453 kts 84°
2026-05-05 12:22 31.01051 104.82532 23180 ft 456 kts 84°
2026-05-05 12:22 31.01346 104.86227 23601 ft 460 kts 84°
2026-05-05 12:22 31.01643 104.89953 24001 ft 464 kts 84°
2026-05-05 12:23 31.02008 104.93708 24407 ft 468 kts 80°
2026-05-05 12:23 31.02839 104.97385 24853 ft 470 kts 68°
2026-05-05 12:23 31.04275 105.00797 25317 ft 471 kts 57°
2026-05-05 12:23 31.06033 105.04040 25773 ft 474 kts 55°
2026-05-05 12:24 31.07832 105.07287 26234 ft 478 kts 55°
2026-05-05 12:24 31.09634 105.10560 26696 ft 482 kts 55°
2026-05-05 12:24 31.11448 105.13870 27172 ft 486 kts 55°
2026-05-05 12:24 31.13271 105.17206 27614 ft 489 kts 55°
2026-05-05 12:25 31.15104 105.20567 28080 ft 493 kts 55°
2026-05-05 12:25 31.16903 105.23868 28525 ft 496 kts 55°
2026-05-05 12:25 31.18758 105.27276 28969 ft 500 kts 55°
2026-05-05 12:25 31.20625 105.30712 29380 ft 504 kts 55°
2026-05-05 12:26 31.22515 105.34194 29805 ft 507 kts 55°
2026-05-05 12:26 31.24413 105.37679 30163 ft 510 kts 54°
2026-05-05 12:26 31.26364 105.41146 30549 ft 512 kts 53°
2026-05-05 12:26 31.28355 105.44598 30934 ft 514 kts 53°
2026-05-05 12:27 31.30375 105.48074 31306 ft 517 kts 52°
2026-05-05 12:27 31.32399 105.51562 31618 ft 520 kts 52°
2026-05-05 12:27 31.34426 105.55075 31963 ft 522 kts 52°
2026-05-05 12:27 31.36421 105.58551 32345 ft 523 kts 52°
2026-05-05 12:28 31.38483 105.62156 32618 ft 526 kts 52°
2026-05-05 12:28 31.40492 105.65680 32865 ft 530 kts 52°
2026-05-05 12:28 31.42566 105.69326 33276 ft 530 kts 52°
2026-05-05 12:28 31.44574 105.72862 33718 ft 529 kts 52°
2026-05-05 12:29 31.46631 105.76483 34150 ft 527 kts 52°
2026-05-05 12:29 31.48635 105.80015 34551 ft 525 kts 52°
2026-05-05 12:29 31.50651 105.83571 34934 ft 524 kts 52°
2026-05-05 12:29 31.52661 105.87120 35335 ft 522 kts 52°
2026-05-05 12:30 31.54672 105.90669 35735 ft 521 kts 51°
2026-05-05 12:30 31.56667 105.94195 36109 ft 520 kts 52°
2026-05-05 12:30 31.58648 105.97701 36453 ft 519 kts 51°
2026-05-05 12:30 31.60647 106.01244 36823 ft 517 kts 51°
2026-05-05 12:31 31.62631 106.04760 37181 ft 516 kts 51°
2026-05-05 12:31 31.64615 106.08280 37501 ft 515 kts 51°
2026-05-05 12:31 31.66586 106.11779 37827 ft 514 kts 51°
2026-05-05 12:31 31.68548 106.15269 38200 ft 512 kts 51°
2026-05-05 12:32 31.70513 106.18766 38502 ft 511 kts 51°
2026-05-05 12:32 31.72457 106.22226 38698 ft 512 kts 51°
2026-05-05 12:32 31.74428 106.25736 38894 ft 513 kts 51°
2026-05-05 12:32 31.76398 106.29246 39088 ft 514 kts 51°
2026-05-05 12:33 31.78370 106.32764 39283 ft 514 kts 51°
2026-05-05 12:33 31.80331 106.36264 39453 ft 515 kts 51°
2026-05-05 12:33 31.82306 106.39796 39617 ft 516 kts 50°
2026-05-05 12:33 31.84278 106.43329 39746 ft 517 kts 51°
2026-05-05 12:34 31.86248 106.46865 39880 ft 517 kts 51°
2026-05-05 12:34 31.88221 106.50415 40066 ft 518 kts 51°
2026-05-05 12:34 31.90186 106.53951 40231 ft 518 kts 50°
2026-05-05 12:34 31.92158 106.57490 40403 ft 519 kts 50°
2026-05-05 12:35 31.94144 106.61058 40554 ft 519 kts 50°
2026-05-05 12:35 31.96125 106.64618 40722 ft 520 kts 50°
2026-05-05 12:35 31.98107 106.68181 40838 ft 522 kts 50°
2026-05-05 12:35 32.00100 106.71771 40872 ft 522 kts 50°
2026-05-05 12:36 32.04030 106.78875 40866 ft 520 kts 50°
2026-05-05 12:36 32.07977 106.86023 40870 ft 520 kts 50°
2026-05-05 12:37 32.11922 106.93177 40882 ft 520 kts 50°
2026-05-05 12:37 32.15862 107.00336 40882 ft 520 kts 50°
2026-05-05 12:38 32.19764 107.07439 40888 ft 520 kts 50°
2026-05-05 12:38 32.23037 107.13405 40896 ft 520 kts 50°
2026-05-05 12:39 32.26652 107.20912 40907 ft 530 kts 62°
2026-05-05 12:39 32.29320 107.29069 40911 ft 533 kts 64°
2026-05-05 12:40 32.31834 107.37308 40909 ft 533 kts 64°
2026-05-05 12:40 32.34337 107.45565 40906 ft 533 kts 64°
2026-05-05 12:41 32.36857 107.53822 40908 ft 534 kts 64°
2026-05-05 12:41 32.39378 107.62080 40916 ft 533 kts 64°
2026-05-05 12:42 32.41889 107.70330 40921 ft 532 kts 64°
2026-05-05 12:42 32.44394 107.78570 40918 ft 532 kts 64°
2026-05-05 12:43 32.46876 107.86763 40920 ft 532 kts 64°
2026-05-05 12:43 32.49635 107.94690 40914 ft 520 kts 53°
2026-05-05 12:44 32.51630 107.98212 40915 ft 508 kts 43°
2026-05-05 12:44 32.54024 108.01197 40909 ft 496 kts 32°
2026-05-05 12:44 32.56760 108.03610 40915 ft 484 kts 22°
2026-05-05 12:44 32.59701 108.05389 40906 ft 472 kts 13°
2026-05-05 12:45 32.65880 108.07789 40905 ft 467 kts
2026-05-05 12:45 32.72106 108.09936 40898 ft 466 kts
2026-05-05 12:46 32.78346 108.12095 40891 ft 467 kts
2026-05-05 12:46 32.84577 108.14290 40891 ft 467 kts
2026-05-05 12:47 32.90803 108.16504 40887 ft 467 kts
2026-05-05 12:47 32.97033 108.18723 40891 ft 467 kts
2026-05-05 12:48 33.03245 108.20934 40890 ft 467 kts
2026-05-05 12:48 33.09478 108.23158 40894 ft 466 kts
2026-05-05 12:49 33.15675 108.25372 40902 ft 466 kts
2026-05-05 12:49 33.21887 108.27751 40910 ft 473 kts 14°
2026-05-05 12:50 33.27629 108.31857 40917 ft 494 kts 32°
2026-05-05 12:50 33.30090 108.34797 40920 ft 506 kts 43°
2026-05-05 12:50 33.32126 108.38281 40923 ft 519 kts 53°
2026-05-05 12:51 33.33638 108.42233 40933 ft 531 kts 65°
2026-05-05 12:51 33.34545 108.46550 40931 ft 540 kts 77°
2026-05-05 12:51 33.34772 108.51053 40921 ft 547 kts 89°
2026-05-05 12:51 33.34397 108.55567 40926 ft 549 kts 93°
2026-05-05 12:52 33.34333 108.60135 40952 ft 544 kts 81°
2026-05-05 12:52 33.34575 108.64588 40926 ft 542 kts 81°
2026-05-05 12:52 33.35210 108.73621 40922 ft 542 kts 79°
2026-05-05 12:53 33.35913 108.82552 40924 ft 542 kts 79°
2026-05-05 12:53 33.36617 108.91516 40909 ft 542 kts 79°
2026-05-05 12:54 33.37653 109.04992 40915 ft 542 kts 79°
2026-05-05 12:55 33.38330 109.13961 40915 ft 541 kts 79°
2026-05-05 12:55 33.38986 109.22911 40936 ft 541 kts 79°
2026-05-05 12:56 33.39650 109.31874 40917 ft 540 kts 79°
2026-05-05 12:56 33.40312 109.40817 40907 ft 539 kts 79°
2026-05-05 12:57 33.40964 109.49758 40926 ft 539 kts 79°
2026-05-05 12:57 33.41606 109.58694 40920 ft 538 kts 79°
2026-05-05 12:58 33.42439 109.67593 40920 ft 537 kts 77°
2026-05-05 12:58 33.43356 109.76450 40925 ft 537 kts 77°
2026-05-05 12:59 33.44253 109.85302 40928 ft 537 kts 77°
2026-05-05 12:59 33.45116 109.94183 40917 ft 537 kts 78°
2026-05-05 13:00 33.46381 110.07498 40934 ft 537 kts 78°
2026-05-05 13:01 33.48050 110.25292 40929 ft 537 kts 77°
2026-05-05 13:01 33.48876 110.34176 40932 ft 537 kts 78°
2026-05-05 13:02 33.50507 110.42763 40941 ft 520 kts 60°
2026-05-05 13:02 33.52074 110.46528 40931 ft 508 kts 50°
2026-05-05 13:02 33.54133 110.49886 40931 ft 494 kts 39°
2026-05-05 13:03 33.56576 110.52699 40925 ft 481 kts 30°
2026-05-05 13:03 33.59293 110.54918 40927 ft 469 kts 20°
2026-05-05 13:03 33.65104 110.58404 40927 ft 465 kts 17°
2026-05-05 13:04 33.70964 110.61695 40927 ft 465 kts 17°
2026-05-05 13:04 33.76820 110.65004 40925 ft 466 kts 17°
2026-05-05 13:05 33.82670 110.68352 40925 ft 466 kts 17°
2026-05-05 13:05 33.88505 110.71713 40922 ft 466 kts 17°
2026-05-05 13:06 33.94347 110.75084 40920 ft 466 kts 17°
2026-05-05 13:06 34.00196 110.78460 40917 ft 466 kts 17°
2026-05-05 13:07 34.06039 110.81837 40911 ft 466 kts 17°
2026-05-05 13:07 34.11884 110.85222 40906 ft 466 kts 17°
2026-05-05 13:08 34.17683 110.88585 40896 ft 465 kts 17°
2026-05-05 13:08 34.23520 110.91976 40891 ft 465 kts 17°
2026-05-05 13:09 34.29346 110.95364 40885 ft 465 kts 17°
2026-05-05 13:09 34.35168 110.98755 40877 ft 465 kts 17°
2026-05-05 13:10 34.40842 111.02612 40869 ft 477 kts 28°
2026-05-05 13:10 34.45582 111.08436 40861 ft 498 kts 47°
2026-05-05 13:11 34.49359 111.15557 40867 ft 504 kts 51°
2026-05-05 13:11 34.52974 111.22834 40868 ft 504 kts 51°
2026-05-05 13:12 34.56587 111.30092 40867 ft 503 kts 51°
2026-05-05 13:12 34.60233 111.37346 40862 ft 502 kts 50°
2026-05-05 13:13 34.63881 111.44582 40866 ft 502 kts 50°
2026-05-05 13:13 34.67521 111.51821 40862 ft 501 kts 50°
2026-05-05 13:14 34.71135 111.59028 40867 ft 500 kts 50°
2026-05-05 13:14 34.74752 111.66255 40864 ft 500 kts 51°
2026-05-05 13:15 34.78362 111.73483 40871 ft 499 kts 51°
2026-05-05 13:15 34.81956 111.80692 40861 ft 499 kts 51°
2026-05-05 13:16 34.85544 111.87907 40864 ft 498 kts 51°
2026-05-05 13:16 34.89135 111.95139 40862 ft 498 kts 51°
2026-05-05 13:17 34.92746 112.02314 40862 ft 497 kts 50°
2026-05-05 13:17 34.96362 112.09484 40864 ft 496 kts 50°
2026-05-05 13:18 34.99965 112.16658 40865 ft 496 kts 51°
2026-05-05 13:18 35.03531 112.23788 40873 ft 496 kts 51°
2026-05-05 13:19 35.07115 112.30974 40873 ft 495 kts 51°
2026-05-05 13:19 35.10695 112.38163 40876 ft 495 kts 51°
2026-05-05 13:20 35.14265 112.45344 40876 ft 495 kts 51°
2026-05-05 13:20 35.17832 112.52538 40876 ft 494 kts 51°
2026-05-05 13:21 35.21386 112.59718 40884 ft 493 kts 51°
2026-05-05 13:21 35.24963 112.66851 40882 ft 492 kts 50°
2026-05-05 13:22 35.28560 112.73992 40887 ft 493 kts 50°
2026-05-05 13:22 35.32143 112.81141 40894 ft 493 kts 50°
2026-05-05 13:23 35.35723 112.88310 40889 ft 493 kts 51°
2026-05-05 13:23 35.39297 112.95486 40899 ft 493 kts 51°
2026-05-05 13:24 35.42863 113.02658 40905 ft 493 kts 51°
2026-05-05 13:24 35.46424 113.09835 40903 ft 493 kts 51°
2026-05-05 13:25 35.49984 113.17025 40912 ft 493 kts 51°
2026-05-05 13:25 35.53547 113.24233 40917 ft 494 kts 51°
2026-05-05 13:26 35.56501 113.30223 40919 ft 494 kts 51°
2026-05-05 13:26 35.60660 113.38674 40920 ft 494 kts 51°
2026-05-05 13:27 35.63614 113.44643 40921 ft 493 kts 50°
2026-05-05 13:27 35.67843 113.52950 40915 ft 493 kts 50°
2026-05-05 13:28 35.70900 113.58951 40918 ft 493 kts 50°
2026-05-05 13:28 35.74507 113.66076 40904 ft 494 kts 50°
2026-05-05 13:29 35.78148 113.73322 40895 ft 493 kts 50°
2026-05-05 13:29 35.81749 113.80507 40889 ft 493 kts 50°
2026-05-05 13:30 35.85345 113.87689 40882 ft 493 kts 50°
2026-05-05 13:30 35.88945 113.94888 40872 ft 493 kts 50°
2026-05-05 13:31 35.92537 114.02087 40863 ft 493 kts 51°
2026-05-05 13:31 35.96124 114.09297 40858 ft 492 kts 51°
2026-05-05 13:32 35.99699 114.16498 40855 ft 492 kts 51°
2026-05-05 13:32 36.03251 114.23661 40853 ft 492 kts 51°
2026-05-05 13:33 36.06821 114.30876 40852 ft 492 kts 51°
2026-05-05 13:33 36.10384 114.38094 40847 ft 492 kts 51°
2026-05-05 13:34 36.13942 114.45316 40846 ft 492 kts 51°
2026-05-05 13:34 36.17489 114.52533 40846 ft 492 kts 51°
2026-05-05 13:35 36.21042 114.59777 40846 ft 491 kts 51°
2026-05-05 13:35 36.24586 114.67019 40846 ft 491 kts 51°
2026-05-05 13:36 36.28123 114.74261 40849 ft 491 kts 51°
2026-05-05 13:36 36.31611 114.81557 40851 ft 492 kts 52°
2026-05-05 13:37 36.35030 114.88900 40841 ft 494 kts 54°
2026-05-05 13:37 36.37520 114.96990 40852 ft 507 kts 66°
2026-05-05 13:38 36.39390 115.05419 40855 ft 509 kts 68°
2026-05-05 13:38 36.41193 115.13954 40855 ft 509 kts 68°
2026-05-05 13:39 36.43171 115.22258 40860 ft 501 kts 60°
2026-05-05 13:39 36.45901 115.30274 40854 ft 498 kts 59°
2026-05-05 13:40 36.48705 115.38134 40858 ft 498 kts 58°
2026-05-05 13:40 36.51522 115.45985 40860 ft 498 kts 58°
2026-05-05 13:41 36.54326 115.53865 40865 ft 498 kts 58°
2026-05-05 13:41 36.57087 115.61675 40854 ft 498 kts 59°
2026-05-05 13:42 36.59870 115.69574 40878 ft 498 kts 59°
2026-05-05 13:42 36.62643 115.77461 40868 ft 498 kts 59°
2026-05-05 13:43 36.65414 115.85360 40864 ft 498 kts 59°
2026-05-05 13:43 36.68166 115.93227 40869 ft 498 kts 59°
2026-05-05 13:44 36.70934 116.01158 40869 ft 498 kts 59°
2026-05-05 13:44 36.73685 116.09065 40871 ft 498 kts 59°
2026-05-05 13:45 36.76438 116.16995 40874 ft 498 kts 59°
2026-05-05 13:45 36.79117 116.24941 40866 ft 502 kts 63°
2026-05-05 13:46 36.80514 116.33587 40872 ft 516 kts 73°
2026-05-05 13:46 36.81223 116.42581 40872 ft 520 kts 75°
2026-05-05 13:47 36.81675 116.51511 40880 ft 523 kts 77°
2026-05-05 13:47 36.81982 116.60605 40875 ft 523 kts 78°
2026-05-05 13:48 36.82254 116.69660 40879 ft 522 kts 78°
2026-05-05 13:48 36.82527 116.78673 40883 ft 522 kts 78°
2026-05-05 13:49 36.82804 116.87775 40886 ft 522 kts 78°
2026-05-05 13:49 36.83075 116.96845 40886 ft 522 kts 78°
2026-05-05 13:50 36.83334 117.05793 40891 ft 522 kts 78°
2026-05-05 13:50 36.83591 117.14842 40893 ft 522 kts 78°
2026-05-05 13:51 36.83525 117.23935 40898 ft 530 kts 86°
2026-05-05 13:51 36.82746 117.33096 40569 ft 531 kts 87°
2026-05-05 13:52 36.82307 117.37680 40333 ft 530 kts 88°
2026-05-05 13:52 36.81861 117.42247 40097 ft 530 kts 87°
2026-05-05 13:52 36.81416 117.46806 39863 ft 530 kts 87°
2026-05-05 13:52 36.80973 117.51373 39639 ft 530 kts 87°
2026-05-05 13:53 36.80534 117.55935 39410 ft 530 kts 87°
2026-05-05 13:53 36.80096 117.60498 39187 ft 530 kts 87°
2026-05-05 13:53 36.79659 117.65054 38956 ft 530 kts 87°
2026-05-05 13:53 36.79222 117.69597 38741 ft 530 kts 86°
2026-05-05 13:54 36.78781 117.74161 38519 ft 530 kts 86°
2026-05-05 13:54 36.78343 117.78673 38258 ft 529 kts 87°
2026-05-05 13:54 36.77898 117.83267 37970 ft 529 kts 87°
2026-05-05 13:54 36.77454 117.87835 37715 ft 529 kts 87°
2026-05-05 13:55 36.77010 117.92379 37446 ft 529 kts 88°
2026-05-05 13:55 36.76577 117.96797 36916 ft 525 kts 88°
2026-05-05 13:55 36.76127 118.01345 36247 ft 523 kts 88°
2026-05-05 13:55 36.75680 118.05837 35555 ft 522 kts 89°
2026-05-05 13:56 36.75235 118.10328 34834 ft 521 kts 89°
2026-05-05 13:56 36.74798 118.14759 34066 ft 522 kts 90°
2026-05-05 13:56 36.74347 118.19313 33162 ft 523 kts 90°
2026-05-05 13:56 36.73898 118.23729 32332 ft 522 kts 91°
2026-05-05 13:57 36.73389 118.28191 31513 ft 522 kts 92°
2026-05-05 13:57 36.72882 118.32667 30633 ft 522 kts 92°
2026-05-05 13:57 36.72444 118.36747 30002 ft 518 kts 92°
2026-05-05 13:57 36.71994 118.41116 29321 ft 512 kts 92°
2026-05-05 13:58 36.71603 118.45015 28753 ft 506 kts 92°
2026-05-05 13:58 36.71175 118.49359 28131 ft 500 kts 92°
2026-05-05 13:58 36.70762 118.53604 27516 ft 494 kts 92°
2026-05-05 13:58 36.70351 118.57848 26910 ft 488 kts 92°
2026-05-05 13:59 36.69544 118.66162 25719 ft 478 kts 92°
2026-05-05 13:59 36.69146 118.70257 25126 ft 473 kts 92°
2026-05-05 14:00 36.68372 118.78181 23976 ft 465 kts 92°
2026-05-05 14:00 36.68115 118.80804 23595 ft 463 kts 93°
2026-05-05 14:00 36.67591 118.86121 22743 ft 457 kts 93°
2026-05-05 14:00 36.67204 118.90009 22151 ft 452 kts 93°
2026-05-05 14:01 36.66833 118.93742 21606 ft 447 kts 93°
2026-05-05 14:01 36.66454 118.97552 21019 ft 443 kts 93°
2026-05-05 14:01 36.66081 119.01292 20457 ft 438 kts 93°
2026-05-05 14:01 36.65705 119.05044 19880 ft 434 kts 93°
2026-05-05 14:02 36.65337 119.08806 19293 ft 431 kts 93°
2026-05-05 14:02 36.65275 119.12452 18734 ft 426 kts 80°
2026-05-05 14:02 36.65947 119.16030 18134 ft 421 kts 69°
2026-05-05 14:02 36.66846 119.19478 17489 ft 417 kts 68°
2026-05-05 14:03 36.67746 119.22944 16902 ft 413 kts 68°
2026-05-05 14:03 36.68605 119.26294 16318 ft 410 kts 69°
2026-05-05 14:03 36.69464 119.29673 15754 ft 406 kts 69°
2026-05-05 14:03 36.70307 119.33011 15175 ft 403 kts 69°
2026-05-05 14:04 36.71148 119.36337 14586 ft 401 kts 69°
2026-05-05 14:04 36.72002 119.39623 14014 ft 398 kts 69°
2026-05-05 14:04 36.72860 119.42907 13425 ft 396 kts 69°
2026-05-05 14:04 36.73706 119.46159 12812 ft 392 kts 70°
2026-05-05 14:05 36.74538 119.49370 12245 ft 388 kts 70°
2026-05-05 14:05 36.75365 119.52566 11679 ft 384 kts 70°
2026-05-05 14:05 36.76170 119.55699 11405 ft 371 kts 70°
2026-05-05 14:05 36.76941 119.58684 11269 ft 354 kts 70°
2026-05-05 14:06 36.77686 119.61540 11142 ft 337 kts 70°
2026-05-05 14:06 36.78391 119.64257 11006 ft 322 kts 70°
2026-05-05 14:06 36.79056 119.66860 10876 ft 308 kts 70°
2026-05-05 14:06 36.79690 119.69375 10750 ft 300 kts 71°
2026-05-05 14:07 36.80304 119.71819 10575 ft 292 kts 71°
2026-05-05 14:07 36.80906 119.74208 10309 ft 289 kts 71°
2026-05-05 14:07 36.81510 119.76598 10016 ft 286 kts 71°
2026-05-05 14:07 36.82115 119.78985 9821 ft 294 kts 71°
2026-05-05 14:08 36.82745 119.81450 9656 ft 302 kts 71°
2026-05-05 14:08 36.83340 119.83935 9220 ft 299 kts 77°
2026-05-05 14:08 36.83357 119.86510 8698 ft 295 kts 103°
2026-05-05 14:08 36.82637 119.88629 8393 ft 289 kts 126°
2026-05-05 14:09 36.81207 119.90320 8079 ft 279 kts 150°
2026-05-05 14:09 36.79415 119.91116 7856 ft 271 kts 169°
2026-05-05 14:09 36.77644 119.91643 7628 ft 268 kts 164°
2026-05-05 14:09 36.75868 119.92281 7292 ft 257 kts 165°
2026-05-05 14:10 36.74214 119.92815 7022 ft 235 kts 166°
2026-05-05 14:10 36.72688 119.93302 6778 ft 219 kts 166°
2026-05-05 14:10 36.71734 119.93630 6605 ft 213 kts 165°
2026-05-05 14:10 36.69913 119.94307 6277 ft 194 kts 165°
2026-05-05 14:11 36.68659 119.94798 6163 ft 183 kts 164°
2026-05-05 14:11 36.67485 119.95264 6028 ft 171 kts 166°
2026-05-05 14:11 36.66363 119.95651 5940 ft 167 kts 167°
2026-05-05 14:11 36.65288 119.96054 5770 ft 167 kts 165°
2026-05-05 14:12 36.64178 119.96507 5552 ft 167 kts 165°
2026-05-05 14:12 36.63072 119.96947 5308 ft 167 kts 165°
2026-05-05 14:12 36.61987 119.97373 5075 ft 159 kts 165°
2026-05-05 14:12 36.60973 119.97773 4834 ft 149 kts 165°
2026-05-05 14:13 36.60014 119.98151 4640 ft 140 kts 166°
2026-05-05 14:13 36.59114 119.98505 4450 ft 132 kts 166°
2026-05-05 14:13 36.58543 119.98729 4337 ft 130 kts 166°
2026-05-05 14:13 36.57391 119.99184 4119 ft 131 kts 166°
2026-05-05 14:14 36.56807 119.99416 4003 ft 131 kts 166°
2026-05-05 14:14 36.55656 119.99871 3777 ft 131 kts 165°
2026-05-05 14:14 36.54788 120.00214 3610 ft 130 kts 165°
2026-05-05 14:14 36.53925 120.00555 3436 ft 129 kts 165°
2026-05-05 14:15 36.53080 120.00889 3273 ft 128 kts 165°
2026-05-05 14:15 36.52223 120.01227 3108 ft 128 kts 166°
2026-05-05 14:15 36.51387 120.01557 2944 ft 128 kts 166°
2026-05-05 14:15 36.50542 120.01891 2766 ft 127 kts 165°
2026-05-05 14:16 36.49985 120.02111 2667 ft 126 kts 165°
2026-05-05 14:16 36.49139 120.02445 2493 ft 126 kts 165°
2026-05-05 14:16 36.48314 120.02771 2338 ft 126 kts 165°
2026-05-05 14:16 36.47489 120.03097 2176 ft 124 kts 165°
2026-05-05 14:17 36.46671 120.03419 2023 ft 123 kts 165°
2026-05-05 14:17 36.45859 120.03739 1853 ft 122 kts 165°
2026-05-05 14:17 36.45057 120.04056 1698 ft 122 kts 164°
2026-05-05 14:17 36.44252 120.04373 1527 ft 121 kts 163°
2026-05-05 14:18 36.43449 120.04687 1373 ft 120 kts 163°
2026-05-05 14:18 36.42650 120.05000 1212 ft 121 kts 162°
2026-05-05 14:18 36.41835 120.05318 1050 ft 124 kts 160°
2026-05-05 14:18 36.41022 120.05638 891 ft 123 kts 160°
2026-05-05 14:19 36.40205 120.05970 717 ft 125 kts 159°
2026-05-05 14:19 36.39382 120.06303 517 ft 124 kts 162°
2026-05-05 14:19 36.38543 120.06610 364 ft 127 kts 154°
2026-05-05 14:19 36.37700 120.06930 174 ft 127 kts 162°
2026-05-05 14:20 36.36882 120.07270 48 ft 124 kts 158°
2026-05-05 14:20 36.36166 120.07541 45 ft 89 kts 165°
2026-05-05 14:20 36.35660 120.07734 43 ft 64 kts 162°
2026-05-05 14:20 36.35293 120.07877 43 ft 49 kts 162°
2026-05-05 14:21 36.35010 120.07991 41 ft 28 kts 156°
2026-05-05 14:21 36.34976 120.08011 41 ft 2 kts 154°
2026-05-05 14:21 36.34922 120.08055 40 ft 16 kts 139°
2026-05-05 14:21 36.34869 120.08117 40 ft 7 kts 136°
2026-05-05 14:22 36.34830 120.08163 41 ft 8 kts 136°
2026-05-05 14:22 36.34786 120.08216 42 ft 10 kts 136°
2026-05-05 14:22 36.34747 120.08263 42 ft 2 kts 134°
2026-05-05 14:22 36.34730 120.08290 42 ft 6 kts 123°
2026-05-05 14:23 36.34733 120.08353 42 ft 10 kts 70°
2026-05-05 14:23 36.34803 120.08383 42 ft 14 kts 344°
2026-05-05 14:23 36.34916 120.08336 42 ft 20 kts 342°
2026-05-05 14:23 36.35069 120.08274 42 ft 26 kts 342°
2026-05-05 14:24 36.35224 120.08217 42 ft 24 kts 342°
2026-05-05 14:24 36.35346 120.08168 43 ft 20 kts 342°
2026-05-05 14:24 36.35464 120.08122 43 ft 19 kts 342°
2026-05-05 14:24 36.35603 120.08068 43 ft 24 kts 342°
2026-05-05 14:25 36.35780 120.07997 43 ft 29 kts 342°
2026-05-05 14:25 36.35971 120.07922 44 ft 32 kts 342°
2026-05-05 14:25 36.36085 120.07878 42 ft 2 kts 343°
2026-05-05 14:25 36.36105 120.07870 44 ft 0 kts 343°
2026-05-05 14:26 36.36115 120.07867 44 ft 5 kts 343°
2026-05-05 14:26 36.36195 120.07835 44 ft 20 kts 342°
2026-05-05 14:26 36.36359 120.07769 44 ft 27 kts 342°
2026-05-05 14:26 36.36475 120.07738 44 ft 3 kts 34°
2026-05-05 14:27 36.36482 120.07767 44 ft 8 kts 77°
2026-05-05 14:27 36.36470 120.07829 43 ft 7 kts 159°
2026-05-05 14:27 36.36396 120.07848 44 ft 9 kts 163°
2026-05-05 14:27 36.36320 120.07887 44 ft 13 kts 140°
2026-05-05 14:28 36.36282 120.07976 44 ft 0 kts 108°
2026-05-05 14:28 36.36277 120.07994 44 ft 7 kts 109°
2026-05-05 14:28 36.36275 120.08003 44 ft 2 kts 109°
2026-05-05 14:28 36.36269 120.08024 44 ft 0 kts 109°
2026-05-05 14:29 36.36269 120.08025 44 ft 0 kts 109°